EW5500 Weather Reports


Display with metric or nautical units.
time (UTC)temp
F
wind
direction
speed
MPH
gust
MPH
rain 1hr
in
rain 24hr
in
rain mn
in
humidity
%
barometer
mb
20260504023056 58 8 4.0 11.0 0.00 0.00 0.00 33 1005.4
20260504021557 60 18 6.0 16.0 0.00 0.00 0.00 31 1005.0
20260504020131 63 57 6.0 12.0 0.00 0.00 0.00 31 1004.7
20260504014604 64 9 3.0 12.0 0.00 0.00 0.00 31 1004.4
20260504013115 65 357 7.0 14.0 0.00 0.00 0.00 30 1004.3
20260504011553 66 1 9.0 20.0 0.00 0.00 0.00 28 1004.2
20260504010051 66 36 8.0 18.0 0.00 0.00 0.00 27 1004.1
20260504004620 67 19 11.0 19.0 0.00 0.00 0.00 27 1004.2
20260504003058 67 1 11.0 19.0 0.00 0.00 0.00 26 1004.2
20260504001618 68 25 13.0 26.0 0.00 0.00 0.00 27 1004.1
20260504000056 69 354 13.0 21.0 0.00 0.00 0.00 26 1004.0
20260503234548 70 325 10.0 24.0 0.00 0.00 0.00 26 1003.9
20260503233049 72 32 13.0 21.0 0.00 0.00 0.00 24 1003.9
20260503231548 72 354 10.0 18.0 0.00 0.00 0.00 23 1003.8
20260503230108 72 1 10.0 18.0 0.00 0.00 0.00 22 1003.8
20260503224545 74 347 8.0 19.0 0.00 0.00 0.00 20 1003.8
20260503223045 74 287 6.0 18.0 0.00 0.00 0.00 20 1003.8
20260503221543 75 245 5.0 20.0 0.00 0.00 0.00 20 1003.9
20260503220047 74 245 14.0 20.0 0.00 0.00 0.00 18 1004.0
20260503214538 74 339 7.0 20.0 0.00 0.00 0.00 20 1004.2
20260503213036 74 314 8.0 18.0 0.00 0.00 0.00 21 1004.4
20260503211532 74 262 9.0 18.0 0.00 0.00 0.00 21 1004.7
20260503210030 73 300 10.0 18.0 0.00 0.00 0.00 22 1004.8
20260503204527 73 330 7.0 24.0 0.00 0.00 0.00 24 1005.0
20260503203042 73 250 7.0 21.0 0.00 0.00 0.00 24 1005.2
20260503201523 72 240 8.0 18.0 0.00 0.00 0.00 24 1005.7
20260503200020 72 322 7.0 21.0 0.00 0.00 0.00 24 1005.8
20260503194533 72 249 9.0 17.0 0.00 0.00 0.00 24 1006.0
20260503193017 71 307 9.0 20.0 0.00 0.00 0.00 24 1006.1
20260503191514 70 345 5.0 18.0 0.00 0.00 0.00 26 1006.3
20260503190016 71 276 7.0 17.0 0.00 0.00 0.00 26 1006.6
20260503184515 70 12 7.0 15.0 0.00 0.00 0.00 26 1006.8
20260503183006 70 319 7.0 16.0 0.00 0.00 0.00 26 1007.0
20260503181504 69 285 6.0 17.0 0.00 0.00 0.00 27 1007.2
20260503180059 68 304 7.0 13.0 0.00 0.00 0.00 28 1007.4
20260503174558 67 302 5.0 12.0 0.00 0.00 0.00 29 1007.7
20260503173056 68 270 4.0 10.0 0.00 0.00 0.00 28 1007.9
20260503171552 66 251 4.0 10.0 0.00 0.00 0.00 32 1008.0
20260503081533 45 184 3.0 7.0 0.00 0.00 0.00 73 1010.2
20260503071506 42 230 2.0 5.0 0.00 0.00 0.00 75 1010.7
20260503060114 42 224 0.0 2.0 0.00 0.00 0.00 72 1010.7
20260503054602 42 239 0.0 1.0 0.00 0.00 0.00 71 1010.7
20260503053047 43 217 0.0 1.0 0.00 0.00 0.00 70 1010.9
20260503051545 44 228 0.0 1.0 0.00 0.00 0.00 70 1010.9
20260503050044 45 234 0.0 1.0 0.00 0.00 0.00 66 1011.0
20260503044543 45 135 0.0 1.0 0.00 0.00 0.00 67 1011.0
20260503043047 46 159 0.0 1.0 0.00 0.00 0.00 65 1011.1
20260503041546 47 148 0.0 1.0 0.00 0.00 0.00 64 1011.1
20260503040042 49 194 0.0 1.0 0.00 0.00 0.00 60 1011.0
20260503034541 51 201 0.0 0.0 0.00 0.00 0.00 59 1011.1
20260503033041 52 201 0.0 1.0 0.00 0.00 0.00 56 1011.1
20260503031545 53 240 0.0 1.0 0.00 0.00 0.00 53 1010.9
20260503030046 56 287 0.0 0.0 0.00 0.00 0.00 47 1010.7
20260503024539 59 287 0.0 0.0 0.00 0.00 0.00 42 1010.7